Eppley Airfield Omaha US
ICAO: KOMA
IATA: OMA
Category: Medium
Scheduled Services: Yes

Elevation: 984 ft
TransAlt. 18000 ft.

Airport Communications:
OMAHA APP/DEP:120.1
ATIS:120.4
CLNC DEL:119.9
GND:121.9
FORT DODGE RDO:116.3
COLUMBUS RDO:122.35
OMAHA TWR:132.1
UNICOM:122.95

KOMA Zoom In..

If you have problems with the map follow the link
https://www.worldairports.se/pages/airport.php?
ICAO=KOMA

Runways:

(A) RW 14L length 8500 ft width 150 ft
ILS 111.75 / hdg 139

(B) RW 14R length 9502 ft width 150 ft
ILS 110.30 / hdg 139

(C) RW 18 length 8154 ft width 150 ft
ILS 110.90 / hdg 175

(D) RW 32L length 9502 ft width 150 ft
ILS 111.90 / hdg 319

(E) RW 32R length 8500 ft width 150 ft
ILS 111.15 / hdg 319

(F) RW 36 length 8154 ft width 150 ft
ILS 110.70 / hdg 355

Location; KOMA
Day. 14 / Time. 14.52 Zulu
* Altimeter: 30.02
* Temperature: -08° c. -17.6°f.
* Wind from: 340° Speed 15 kn.
Dewpoint: -11° c.
Visibility: 4 Statute Miles.
Clouds: Overcast 1600 ft.
Conditions: Light Snow.

KOMA 141452Z 34015KT 4SM -SN OVC016 M08/M11 A3002 RMK AO2 PK WND 35027/1428 SLP177 P0000 60000 T10781111 51016


Wind From 340°
Speed 15 kn.

 
 
jpsmedia worldairports.se 2019   terms of use